Time,TemperatureF,DewpointF,PressureIn,WindDirection,WindDirectionDegrees,WindSpeedMPH,WindSpeedGustMPH,Humidity,HourlyPrecipIn,Conditions,Clouds,dailyrainin,SoftwareType,DateUTC
2013-09-26 00:00:00,65.2,64.9,29.85,SW,236,0.0,0.0,99,0.00,,---,0.59,VWS V14.01,2013-09-26 04:00:00,
2013-09-26 00:01:00,65.1,64.8,29.85,WSW,249,0.0,0.0,99,0.00,,---,0.00,VWS V14.01,2013-09-26 04:01:00,
2013-09-26 00:02:00,65.1,64.8,29.85,WSW,249,0.0,1.0,99,0.00,,---,0.00,VWS V14.01,2013-09-26 04:02:00,
2013-09-26 00:05:00,65.2,64.9,29.85,SW,236,0.0,0.0,99,0.00,,---,0.59,VWS V14.01,2013-09-26 04:05:00,
2013-09-26 00:07:00,65.0,64.7,29.85,WSW,249,0.0,0.0,99,0.00,,---,0.00,VWS V14.01,2013-09-26 04:07:00,
2013-09-26 00:10:00,65.2,64.9,29.84,SW,236,0.0,1.0,99,0.00,,---,0.59,VWS V14.01,2013-09-26 04:10:00,
2013-09-26 00:12:00,65.0,64.7,29.85,WSW,249,0.0,0.0,99,0.00,,---,0.00,VWS V14.01,2013-09-26 04:12:00,
2013-09-26 00:15:00,65.2,64.9,29.85,SW,236,0.0,1.0,99,0.00,,---,0.59,VWS V14.01,2013-09-26 04:15:00,
2013-09-26 00:17:00,65.0,64.7,29.85,WSW,249,0.0,0.0,99,0.00,,---,0.00,VWS V14.01,2013-09-26 04:17:00,
2013-09-26 00:20:00,65.2,64.9,29.84,SW,236,0.0,0.0,99,0.00,,---,0.59,VWS V14.01,2013-09-26 04:20:00,
2013-09-26 00:22:00,65.0,64.7,29.85,WSW,249,0.0,0.0,99,0.00,,---,0.00,VWS V14.01,2013-09-26 04:22:00,
2013-09-26 00:25:00,65.2,64.9,29.85,SW,236,0.0,1.0,99,0.00,,---,0.59,VWS V14.01,2013-09-26 04:25:00,
2013-09-26 00:27:00,65.0,64.7,29.85,WSW,249,0.0,0.0,99,0.00,,---,0.00,VWS V14.01,2013-09-26 04:27:00,
2013-09-26 00:30:00,65.2,64.9,29.84,SW,236,0.0,1.0,99,0.00,,---,0.59,VWS V14.01,2013-09-26 04:30:00,
2013-09-26 00:32:00,65.0,64.7,29.85,WSW,249,0.0,0.0,99,0.00,,---,0.00,VWS V14.01,2013-09-26 04:32:00,
2013-09-26 00:35:00,65.2,64.9,29.84,SW,236,0.0,1.0,99,0.00,,---,0.59,VWS V14.01,2013-09-26 04:35:00,
2013-09-26 00:37:00,65.0,64.7,29.85,WSW,249,0.0,0.0,99,0.00,,---,0.00,VWS V14.01,2013-09-26 04:37:00,
2013-09-26 00:40:00,65.2,64.9,29.84,SW,236,0.0,0.0,99,0.00,,---,0.59,VWS V14.01,2013-09-26 04:40:00,
2013-09-26 00:42:00,65.0,64.7,29.85,WSW,249,0.0,1.0,99,0.00,,---,0.00,VWS V14.01,2013-09-26 04:42:00,
2013-09-26 00:45:00,65.1,64.8,29.84,SW,236,0.0,0.0,99,0.00,,---,0.59,VWS V14.01,2013-09-26 04:45:00,
2013-09-26 00:47:00,64.9,64.6,29.85,WSW,249,0.0,0.0,99,0.00,,---,0.00,VWS V14.01,2013-09-26 04:47:00,
2013-09-26 00:50:00,65.1,64.8,29.84,SW,236,0.0,0.0,99,0.00,,---,0.59,VWS V14.01,2013-09-26 04:50:00,
2013-09-26 00:52:00,64.9,64.6,29.85,WSW,249,0.0,0.0,99,0.00,,---,0.00,VWS V14.01,2013-09-26 04:52:00,
2013-09-26 00:55:00,65.1,64.8,29.84,WSW,250,0.0,2.0,99,0.00,,---,0.59,VWS V14.01,2013-09-26 04:55:00,
2013-09-26 00:57:00,64.9,64.6,29.85,WSW,249,0.0,1.0,99,0.00,,---,0.00,VWS V14.01,2013-09-26 04:57:00,
2013-09-26 01:00:00,65.1,64.8,29.85,WSW,249,0.0,1.0,99,0.00,,---,0.00,VWS V14.01,2013-09-26 05:00:00,
2013-09-26 01:02:00,64.9,64.6,29.84,WSW,249,0.0,0.0,99,0.00,,---,0.00,VWS V14.01,2013-09-26 05:02:00,
2013-09-26 01:05:00,65.0,64.7,29.85,WSW,249,0.0,1.0,99,0.00,,---,0.00,VWS V14.01,2013-09-26 05:05:00,
2013-09-26 01:07:00,64.9,64.6,29.85,WSW,249,0.0,1.0,99,0.00,,---,0.00,VWS V14.01,2013-09-26 05:07:00,
2013-09-26 01:10:00,65.0,64.7,29.85,WSW,249,0.0,0.0,99,0.00,,---,0.00,VWS V14.01,2013-09-26 05:10:00,
2013-09-26 01:12:00,64.9,64.6,29.85,SW,236,0.0,1.0,99,0.00,,---,0.00,VWS V14.01,2013-09-26 05:12:00,
2013-09-26 01:15:00,65.0,64.7,29.85,WSW,249,0.0,0.0,99,0.00,,---,0.00,VWS V14.01,2013-09-26 05:15:00,
2013-09-26 01:17:00,64.9,64.6,29.85,SW,236,0.0,1.0,99,0.00,,---,0.00,VWS V14.01,2013-09-26 05:17:00,
2013-09-26 01:20:00,65.0,64.7,29.85,WSW,249,0.0,1.0,99,0.00,,---,0.00,VWS V14.01,2013-09-26 05:20:00,
2013-09-26 01:22:00,64.9,64.6,29.84,SW,236,0.0,1.0,99,0.00,,---,0.00,VWS V14.01,2013-09-26 05:22:00,
2013-09-26 01:25:00,65.0,64.7,29.85,WSW,249,0.0,0.0,99,0.00,,---,0.00,VWS V14.01,2013-09-26 05:25:00,
2013-09-26 01:27:00,64.9,64.6,29.84,SW,236,0.0,0.0,99,0.00,,---,0.00,VWS V14.01,2013-09-26 05:27:00,
2013-09-26 01:30:00,65.0,64.7,29.85,WSW,249,0.0,0.0,99,0.00,,---,0.00,VWS V14.01,2013-09-26 05:30:00,
2013-09-26 01:32:00,64.9,64.6,29.85,SW,236,0.0,1.0,99,0.00,,---,0.00,VWS V14.01,2013-09-26 05:32:00,
2013-09-26 01:35:00,65.0,64.7,29.85,WSW,249,0.0,0.0,99,0.00,,---,0.00,VWS V14.01,2013-09-26 05:35:00,
2013-09-26 01:37:00,64.9,64.6,29.85,SW,236,0.0,1.0,99,0.00,,---,0.00,VWS V14.01,2013-09-26 05:37:00,
2013-09-26 01:40:00,64.9,64.6,29.85,WSW,249,0.0,0.0,99,0.00,,---,0.00,VWS V14.01,2013-09-26 05:40:00,
2013-09-26 01:42:00,64.9,64.6,29.85,WSW,249,0.0,1.0,99,0.00,,---,0.00,VWS V14.01,2013-09-26 05:42:00,
2013-09-26 01:45:00,64.9,64.6,29.85,WSW,249,0.0,1.0,99,0.00,,---,0.00,VWS V14.01,2013-09-26 05:45:00,
2013-09-26 01:47:00,64.9,64.6,29.85,WSW,250,1.0,1.0,99,0.00,,---,0.00,VWS V14.01,2013-09-26 05:47:00,
2013-09-26 01:50:00,65.1,64.8,29.84,SW,236,0.0,0.0,99,0.00,,---,0.59,VWS V14.01,2013-09-26 05:50:00,
2013-09-26 01:52:00,64.9,64.6,29.85,WSW,250,0.0,0.0,99,0.00,,---,0.00,VWS V14.01,2013-09-26 05:52:00,
2013-09-26 01:55:00,64.9,64.6,29.85,WSW,249,0.0,1.0,99,0.00,,---,0.00,VWS V14.01,2013-09-26 05:55:00,
2013-09-26 01:57:00,64.9,64.6,29.85,WSW,250,0.0,0.0,99,0.00,,---,0.00,VWS V14.01,2013-09-26 05:57:00,
2013-09-26 02:00:00,64.9,64.6,29.84,WSW,249,0.0,1.0,99,0.00,,---,0.00,VWS V14.01,2013-09-26 06:00:00,
2013-09-26 02:02:00,64.8,64.5,29.85,WSW,250,0.0,1.0,99,0.00,,---,0.00,VWS V14.01,2013-09-26 06:02:00,
2013-09-26 02:05:00,65.0,64.7,29.85,WSW,249,0.0,1.0,99,0.00,,---,0.00,VWS V14.01,2013-09-26 06:05:00,
2013-09-26 02:07:00,64.8,64.5,29.85,WSW,250,0.0,0.0,99,0.00,,---,0.00,VWS V14.01,2013-09-26 06:07:00,
2013-09-26 02:10:00,64.9,64.6,29.85,WSW,245,0.0,2.0,99,0.00,,---,0.00,VWS V14.01,2013-09-26 06:10:00,
2013-09-26 02:12:00,64.8,64.5,29.85,WSW,250,0.0,0.0,99,0.00,,---,0.00,VWS V14.01,2013-09-26 06:12:00,
2013-09-26 02:15:00,64.9,64.6,29.85,SW,236,0.0,1.0,99,0.00,,---,0.00,VWS V14.01,2013-09-26 06:15:00,
2013-09-26 02:17:00,64.7,64.4,29.85,WSW,250,0.0,0.0,99,0.00,,---,0.00,VWS V14.01,2013-09-26 06:17:00,
2013-09-26 02:20:00,64.9,64.6,29.85,SW,236,0.0,1.0,99,0.00,,---,0.00,VWS V14.01,2013-09-26 06:20:00,
2013-09-26 02:22:00,64.7,64.4,29.85,WSW,250,0.0,0.0,99,0.00,,---,0.00,VWS V14.01,2013-09-26 06:22:00,
2013-09-26 02:25:00,64.9,64.6,29.85,SW,236,0.0,1.0,99,0.00,,---,0.00,VWS V14.01,2013-09-26 06:25:00,
2013-09-26 02:27:00,64.7,64.4,29.85,WSW,250,0.0,0.0,99,0.00,,---,0.00,VWS V14.01,2013-09-26 06:27:00,
2013-09-26 02:30:00,64.9,64.6,29.85,SW,236,0.0,1.0,99,0.00,,---,0.00,VWS V14.01,2013-09-26 06:30:00,
2013-09-26 02:32:00,64.7,64.4,29.85,WSW,250,0.0,0.0,99,0.00,,---,0.00,VWS V14.01,2013-09-26 06:32:00,
2013-09-26 02:35:00,64.9,64.6,29.85,SW,236,0.0,1.0,99,0.00,,---,0.00,VWS V14.01,2013-09-26 06:35:00,
2013-09-26 02:37:00,64.6,64.3,29.85,WSW,250,0.0,0.0,99,0.00,,---,0.00,VWS V14.01,2013-09-26 06:37:00,
2013-09-26 02:40:00,64.8,64.5,29.85,WSW,257,0.0,1.0,99,0.00,,---,0.00,VWS V14.01,2013-09-26 06:40:00,
2013-09-26 02:42:00,64.6,64.3,29.85,WSW,250,0.0,0.0,99,0.00,,---,0.00,VWS V14.01,2013-09-26 06:42:00,
2013-09-26 02:45:00,64.9,64.6,29.85,WSW,250,0.0,1.0,99,0.00,,---,0.00,VWS V14.01,2013-09-26 06:45:00,
2013-09-26 02:47:00,64.6,64.3,29.85,WSW,250,0.0,0.0,99,0.00,,---,0.00,VWS V14.01,2013-09-26 06:47:00,
2013-09-26 02:50:00,64.9,64.6,29.85,WSW,250,0.0,1.0,99,0.00,,---,0.00,VWS V14.01,2013-09-26 06:50:00,
2013-09-26 02:52:00,64.6,64.3,29.85,WSW,250,0.0,0.0,99,0.00,,---,0.00,VWS V14.01,2013-09-26 06:52:00,
2013-09-26 02:55:00,64.8,64.5,29.85,WSW,250,0.0,1.0,99,0.00,,---,0.00,VWS V14.01,2013-09-26 06:55:00,
2013-09-26 02:57:00,64.6,64.3,29.85,WSW,250,0.0,0.0,99,0.00,,---,0.00,VWS V14.01,2013-09-26 06:57:00,
2013-09-26 03:00:00,64.8,64.5,29.85,WSW,250,0.0,1.0,99,0.00,,---,0.00,VWS V14.01,2013-09-26 07:00:00,
2013-09-26 03:02:00,64.6,64.3,29.84,WSW,250,0.0,1.0,99,0.00,,---,0.00,VWS V14.01,2013-09-26 07:02:00,
2013-09-26 03:05:00,64.8,64.5,29.85,WSW,250,0.0,1.0,99,0.00,,---,0.00,VWS V14.01,2013-09-26 07:05:00,
2013-09-26 03:07:00,64.5,64.2,29.85,WSW,250,0.0,0.0,99,0.00,,---,0.00,VWS V14.01,2013-09-26 07:07:00,
2013-09-26 03:10:00,64.8,64.5,29.85,WSW,250,0.0,0.0,99,0.00,,---,0.00,VWS V14.01,2013-09-26 07:10:00,
2013-09-26 03:12:00,64.5,64.2,29.85,WSW,250,0.0,0.0,99,0.00,,---,0.00,VWS V14.01,2013-09-26 07:12:00,
2013-09-26 03:15:00,64.8,64.5,29.85,WSW,250,0.0,1.0,99,0.00,,---,0.00,VWS V14.01,2013-09-26 07:15:00,
2013-09-26 03:17:00,64.5,64.2,29.85,WSW,250,0.0,0.0,99,0.00,,---,0.00,VWS V14.01,2013-09-26 07:17:00,
2013-09-26 03:20:00,64.7,64.4,29.85,WSW,250,0.0,0.0,99,0.00,,---,0.00,VWS V14.01,2013-09-26 07:20:00,
2013-09-26 03:22:00,64.5,64.2,29.85,WSW,250,0.0,0.0,99,0.00,,---,0.00,VWS V14.01,2013-09-26 07:22:00,
2013-09-26 03:25:00,64.7,64.4,29.85,WSW,250,0.0,0.0,99,0.00,,---,0.00,VWS V14.01,2013-09-26 07:25:00,
2013-09-26 03:27:00,64.5,64.2,29.85,WSW,250,0.0,0.0,99,0.00,,---,0.00,VWS V14.01,2013-09-26 07:27:00,
2013-09-26 03:30:00,64.7,64.4,29.85,WSW,250,0.0,0.0,99,0.00,,---,0.00,VWS V14.01,2013-09-26 07:30:00,
2013-09-26 03:32:00,64.4,64.1,29.85,WSW,250,0.0,0.0,99,0.00,,---,0.00,VWS V14.01,2013-09-26 07:32:00,
2013-09-26 03:35:00,64.7,64.4,29.85,WSW,250,0.0,0.0,99,0.00,,---,0.00,VWS V14.01,2013-09-26 07:35:00,
2013-09-26 03:37:00,64.5,64.2,29.85,WSW,250,0.0,0.0,99,0.00,,---,0.00,VWS V14.01,2013-09-26 07:37:00,
2013-09-26 03:40:00,64.6,64.3,29.85,WSW,250,0.0,0.0,99,0.00,,---,0.00,VWS V14.01,2013-09-26 07:40:00,
2013-09-26 03:42:00,64.4,64.1,29.85,WSW,250,0.0,0.0,99,0.00,,---,0.00,VWS V14.01,2013-09-26 07:42:00,
2013-09-26 03:45:00,64.6,64.3,29.85,WSW,250,0.0,0.0,99,0.00,,---,0.00,VWS V14.01,2013-09-26 07:45:00,
2013-09-26 03:47:00,64.4,64.1,29.85,WSW,250,0.0,1.0,99,0.00,,---,0.00,VWS V14.01,2013-09-26 07:47:00,
2013-09-26 03:50:00,64.6,64.3,29.85,WSW,250,0.0,0.0,99,0.00,,---,0.00,VWS V14.01,2013-09-26 07:50:00,
2013-09-26 03:52:00,64.5,64.2,29.84,SSW,205,1.0,2.0,99,0.00,,---,0.00,VWS V14.01,2013-09-26 07:52:00,
2013-09-26 03:55:00,64.6,64.3,29.84,WSW,250,0.0,0.0,99,0.00,,---,0.00,VWS V14.01,2013-09-26 07:55:00,
2013-09-26 03:57:00,64.4,64.1,29.84,SW,225,0.0,1.0,99,0.00,,---,0.00,VWS V14.01,2013-09-26 07:57:00,
2013-09-26 04:00:00,64.6,64.3,29.85,WSW,250,0.0,1.0,99,0.00,,---,0.00,VWS V14.01,2013-09-26 08:00:00,
2013-09-26 04:02:00,64.4,64.1,29.84,SW,222,0.0,1.0,99,0.00,,---,0.00,VWS V14.01,2013-09-26 08:02:00,
2013-09-26 04:05:00,64.6,64.3,29.85,WSW,250,0.0,1.0,99,0.00,,---,0.00,VWS V14.01,2013-09-26 08:05:00,
2013-09-26 04:07:00,64.4,64.1,29.84,SW,224,1.0,2.0,99,0.00,,---,0.00,VWS V14.01,2013-09-26 08:07:00,
2013-09-26 04:10:00,64.5,64.2,29.85,WSW,250,0.0,0.0,99,0.00,,---,0.00,VWS V14.01,2013-09-26 08:10:00,
2013-09-26 04:12:00,64.4,64.1,29.84,WSW,244,0.0,1.0,99,0.00,,---,0.00,VWS V14.01,2013-09-26 08:12:00,
2013-09-26 04:15:00,64.5,64.2,29.85,WSW,250,0.0,0.0,99,0.00,,---,0.00,VWS V14.01,2013-09-26 08:15:00,
2013-09-26 04:17:00,64.3,64.0,29.84,ENE,60,0.0,1.0,99,0.00,,---,0.00,VWS V14.01,2013-09-26 08:17:00,
2013-09-26 04:20:00,64.5,64.2,29.85,WSW,250,0.0,0.0,99,0.00,,---,0.00,VWS V14.01,2013-09-26 08:20:00,
2013-09-26 04:22:00,64.3,64.0,29.85,ENE,60,0.0,1.0,99,0.00,,---,0.00,VWS V14.01,2013-09-26 08:22:00,
2013-09-26 04:25:00,64.5,64.2,29.85,WSW,250,0.0,0.0,99,0.00,,---,0.00,VWS V14.01,2013-09-26 08:25:00,
2013-09-26 04:27:00,64.1,63.8,29.84,ENE,60,0.0,1.0,99,0.00,,---,0.00,VWS V14.01,2013-09-26 08:27:00,
2013-09-26 04:30:00,64.5,64.2,29.85,WSW,250,0.0,0.0,99,0.00,,---,0.00,VWS V14.01,2013-09-26 08:30:00,
2013-09-26 04:32:00,64.1,63.8,29.84,ENE,62,0.0,0.0,99,0.00,,---,0.00,VWS V14.01,2013-09-26 08:32:00,
2013-09-26 04:35:00,64.4,64.1,29.85,WSW,250,0.0,0.0,99,0.00,,---,0.00,VWS V14.01,2013-09-26 08:35:00,
2013-09-26 04:37:00,63.9,63.6,29.84,ENE,62,0.0,0.0,99,0.00,,---,0.00,VWS V14.01,2013-09-26 08:37:00,
2013-09-26 04:40:00,64.5,64.2,29.85,WSW,250,0.0,0.0,99,0.00,,---,0.00,VWS V14.01,2013-09-26 08:40:00,
2013-09-26 04:42:00,63.7,63.4,29.84,ENE,62,0.0,0.0,99,0.00,,---,0.00,VWS V14.01,2013-09-26 08:42:00,
2013-09-26 04:45:00,64.4,64.1,29.85,WSW,250,0.0,0.0,99,0.00,,---,0.00,VWS V14.01,2013-09-26 08:45:00,
2013-09-26 04:47:00,63.8,63.5,29.85,ENE,62,0.0,0.0,99,0.00,,---,0.00,VWS V14.01,2013-09-26 08:47:00,
2013-09-26 04:50:00,64.5,64.2,29.85,SSW,210,0.0,1.0,99,0.00,,---,0.00,VWS V14.01,2013-09-26 08:50:00,
2013-09-26 04:52:00,63.8,63.5,29.85,ENE,62,0.0,0.0,99,0.00,,---,0.00,VWS V14.01,2013-09-26 08:52:00,
2013-09-26 04:55:00,64.4,64.1,29.84,SSW,211,0.0,2.0,99,0.00,,---,0.00,VWS V14.01,2013-09-26 08:55:00,
2013-09-26 04:57:00,63.8,63.8,29.85,ENE,62,0.0,0.0,100,0.00,,---,0.00,VWS V14.01,2013-09-26 08:57:00,
2013-09-26 05:00:00,64.4,64.1,29.84,SW,225,0.0,1.0,99,0.00,,---,0.00,VWS V14.01,2013-09-26 09:00:00,
2013-09-26 05:02:00,63.8,63.5,29.85,ENE,62,0.0,0.0,99,0.00,,---,0.00,VWS V14.01,2013-09-26 09:02:00,
2013-09-26 05:05:00,64.4,64.1,29.84,WSW,247,0.0,2.0,99,0.00,,---,0.00,VWS V14.01,2013-09-26 09:05:00,
2013-09-26 05:07:00,63.8,63.8,29.85,ENE,62,0.0,0.0,100,0.00,,---,0.00,VWS V14.01,2013-09-26 09:07:00,
2013-09-26 05:10:00,64.4,64.1,29.84,SW,232,0.0,2.0,99,0.00,,---,0.00,VWS V14.01,2013-09-26 09:10:00,
2013-09-26 05:12:00,63.8,63.8,29.85,ENE,62,0.0,0.0,100,0.00,,---,0.00,VWS V14.01,2013-09-26 09:12:00,
2013-09-26 05:15:00,64.4,64.1,29.84,SSW,198,0.0,1.0,99,0.00,,---,0.00,VWS V14.01,2013-09-26 09:15:00,
2013-09-26 05:17:00,63.8,63.8,29.85,ENE,62,0.0,0.0,100,0.00,,---,0.00,VWS V14.01,2013-09-26 09:17:00,
2013-09-26 05:20:00,64.3,64.0,29.84,ENE,60,0.0,1.0,99,0.00,,---,0.00,VWS V14.01,2013-09-26 09:20:00,
2013-09-26 05:22:00,63.9,63.9,29.85,ENE,62,0.0,0.0,100,0.00,,---,0.00,VWS V14.01,2013-09-26 09:22:00,
2013-09-26 05:25:00,64.2,63.9,29.84,ENE,60,0.0,1.0,99,0.00,,---,0.00,VWS V14.01,2013-09-26 09:25:00,
2013-09-26 05:27:00,64.0,64.0,29.85,ENE,62,0.0,0.0,100,0.00,,---,0.00,VWS V14.01,2013-09-26 09:27:00,
2013-09-26 05:30:00,64.1,63.8,29.84,ENE,60,0.0,1.0,99,0.00,,---,0.00,VWS V14.01,2013-09-26 09:30:00,
2013-09-26 05:32:00,64.0,64.0,29.86,ENE,62,0.0,0.0,100,0.00,,---,0.00,VWS V14.01,2013-09-26 09:32:00,
2013-09-26 05:35:00,63.9,63.6,29.84,ENE,62,0.0,0.0,99,0.00,,---,0.00,VWS V14.01,2013-09-26 09:35:00,
2013-09-26 05:38:00,64.0,64.0,29.86,ENE,62,0.0,0.0,100,0.00,,---,0.00,VWS V14.01,2013-09-26 09:38:00,
2013-09-26 05:40:00,63.8,63.5,29.84,ENE,62,0.0,0.0,99,0.00,,---,0.00,VWS V14.01,2013-09-26 09:40:00,
2013-09-26 05:43:00,64.0,64.0,29.86,ENE,62,0.0,0.0,100,0.00,,---,0.00,VWS V14.01,2013-09-26 09:43:00,
2013-09-26 05:45:00,63.7,63.4,29.84,ENE,62,0.0,0.0,99,0.00,,---,0.00,VWS V14.01,2013-09-26 09:45:00,
2013-09-26 05:48:00,64.1,64.1,29.86,ENE,62,0.0,0.0,100,0.00,,---,0.00,VWS V14.01,2013-09-26 09:48:00,
2013-09-26 05:50:00,63.8,63.5,29.85,ENE,62,0.0,0.0,99,0.00,,---,0.00,VWS V14.01,2013-09-26 09:50:00,
2013-09-26 05:53:00,64.1,64.1,29.86,ENE,62,0.0,0.0,100,0.00,,---,0.00,VWS V14.01,2013-09-26 09:53:00,
2013-09-26 05:55:00,63.8,63.8,29.85,ENE,62,0.0,0.0,100,0.00,,---,0.00,VWS V14.01,2013-09-26 09:55:00,
2013-09-26 05:58:00,64.1,64.1,29.86,ENE,62,0.0,1.0,100,0.00,,---,0.00,VWS V14.01,2013-09-26 09:58:00,
2013-09-26 06:00:00,64.4,64.1,29.84,SW,225,0.0,1.0,99,0.00,,---,0.00,VWS V14.01,2013-09-26 10:00:00,
2013-09-26 06:03:00,64.2,64.2,29.86,ENE,62,0.0,0.0,100,0.00,,---,0.00,VWS V14.01,2013-09-26 10:03:00,
2013-09-26 06:05:00,63.8,63.5,29.85,ENE,62,0.0,0.0,99,0.00,,---,0.00,VWS V14.01,2013-09-26 10:05:00,
2013-09-26 06:08:00,64.3,64.3,29.86,ENE,61,0.0,1.0,100,0.00,,---,0.00,VWS V14.01,2013-09-26 10:08:00,
2013-09-26 06:10:00,64.4,64.1,29.84,SW,232,0.0,2.0,99,0.00,,---,0.00,VWS V14.01,2013-09-26 10:10:00,
2013-09-26 06:13:00,64.3,64.3,29.86,ENE,61,0.0,1.0,100,0.00,,---,0.00,VWS V14.01,2013-09-26 10:13:00,
2013-09-26 06:15:00,64.4,64.1,29.84,SSW,198,0.0,1.0,99,0.00,,---,0.00,VWS V14.01,2013-09-26 10:15:00,
2013-09-26 06:18:00,64.3,64.3,29.86,ENE,61,0.0,0.0,100,0.00,,---,0.00,VWS V14.01,2013-09-26 10:18:00,
2013-09-26 06:20:00,63.9,63.9,29.85,ENE,62,0.0,0.0,100,0.00,,---,0.00,VWS V14.01,2013-09-26 10:20:00,
2013-09-26 06:23:00,64.2,64.2,29.86,ENE,61,0.0,1.0,100,0.00,,---,0.00,VWS V14.01,2013-09-26 10:23:00,
2013-09-26 06:25:00,63.9,63.9,29.85,ENE,62,0.0,0.0,100,0.00,,---,0.00,VWS V14.01,2013-09-26 10:25:00,
2013-09-26 06:28:00,64.3,64.3,29.87,ENE,61,0.0,0.0,100,0.00,,---,0.00,VWS V14.01,2013-09-26 10:28:00,
2013-09-26 06:30:00,64.0,64.0,29.85,ENE,62,0.0,0.0,100,0.00,,---,0.00,VWS V14.01,2013-09-26 10:30:00,
2013-09-26 06:33:00,64.2,64.2,29.87,ENE,61,0.0,1.0,100,0.00,,---,0.00,VWS V14.01,2013-09-26 10:33:00,
2013-09-26 06:35:00,63.9,63.6,29.84,ENE,62,0.0,0.0,99,0.00,,---,0.00,VWS V14.01,2013-09-26 10:35:00,
2013-09-26 06:38:00,64.2,64.2,29.87,ENE,61,0.0,0.0,100,0.00,,---,0.00,VWS V14.01,2013-09-26 10:38:00,
2013-09-26 06:40:00,64.0,64.0,29.86,ENE,62,0.0,0.0,100,0.00,,---,0.00,VWS V14.01,2013-09-26 10:40:00,
2013-09-26 06:43:00,64.2,64.2,29.87,ENE,61,0.0,0.0,100,0.00,,---,0.00,VWS V14.01,2013-09-26 10:43:00,
2013-09-26 06:45:00,64.0,64.0,29.86,ENE,62,0.0,0.0,100,0.00,,---,0.00,VWS V14.01,2013-09-26 10:45:00,
2013-09-26 06:48:00,64.2,64.2,29.88,ENE,61,0.0,0.0,100,0.00,,---,0.00,VWS V14.01,2013-09-26 10:48:00,
2013-09-26 06:50:00,64.0,64.0,29.86,ENE,62,0.0,0.0,100,0.00,,---,0.00,VWS V14.01,2013-09-26 10:50:00,
2013-09-26 06:53:00,64.2,64.2,29.88,ENE,61,0.0,0.0,100,0.00,,---,0.00,VWS V14.01,2013-09-26 10:53:00,
2013-09-26 06:55:00,64.1,64.1,29.86,ENE,62,0.0,0.0,100,0.00,,---,0.00,VWS V14.01,2013-09-26 10:55:00,
2013-09-26 06:58:00,64.2,64.2,29.88,ENE,61,0.0,0.0,100,0.00,,---,0.00,VWS V14.01,2013-09-26 10:58:00,
2013-09-26 07:00:00,64.1,64.1,29.86,ENE,62,0.0,1.0,100,0.00,,---,0.00,VWS V14.01,2013-09-26 11:00:00,
2013-09-26 07:03:00,64.2,64.2,29.89,ENE,61,0.0,0.0,100,0.00,,---,0.00,VWS V14.01,2013-09-26 11:03:00,
2013-09-26 07:05:00,64.2,64.2,29.86,ENE,62,0.0,0.0,100,0.00,,---,0.00,VWS V14.01,2013-09-26 11:05:00,
2013-09-26 07:08:00,64.3,64.3,29.89,ENE,61,0.0,0.0,100,0.00,,---,0.00,VWS V14.01,2013-09-26 11:08:00,
2013-09-26 07:10:00,64.3,64.3,29.86,ENE,61,1.0,1.0,100,0.00,,---,0.00,VWS V14.01,2013-09-26 11:10:00,
2013-09-26 07:13:00,64.2,64.2,29.89,ENE,61,0.0,0.0,100,0.00,,---,0.00,VWS V14.01,2013-09-26 11:13:00,
2013-09-26 07:15:00,64.2,64.2,29.86,ENE,61,0.0,1.0,100,0.00,,---,0.00,VWS V14.01,2013-09-26 11:15:00,
2013-09-26 07:18:00,64.2,64.2,29.89,ENE,61,0.0,0.0,100,0.00,,---,0.00,VWS V14.01,2013-09-26 11:18:00,
2013-09-26 07:20:00,64.3,64.3,29.86,ENE,61,0.0,0.0,100,0.00,,---,0.00,VWS V14.01,2013-09-26 11:20:00,
2013-09-26 07:23:00,64.2,64.2,29.90,ENE,61,0.0,0.0,100,0.00,,---,0.00,VWS V14.01,2013-09-26 11:23:00,
2013-09-26 07:25:00,64.2,64.2,29.87,ENE,61,0.0,1.0,100,0.00,,---,0.00,VWS V14.01,2013-09-26 11:25:00,
2013-09-26 07:28:00,64.3,64.3,29.90,ENE,61,0.0,0.0,100,0.00,,---,0.00,VWS V14.01,2013-09-26 11:28:00,
2013-09-26 07:30:00,64.2,64.2,29.87,ENE,61,0.0,0.0,100,0.00,,---,0.00,VWS V14.01,2013-09-26 11:30:00,
2013-09-26 07:33:00,64.2,64.2,29.90,ENE,61,0.0,0.0,100,0.00,,---,0.00,VWS V14.01,2013-09-26 11:33:00,
2013-09-26 07:35:00,64.2,64.2,29.87,ENE,61,0.0,1.0,100,0.00,,---,0.00,VWS V14.01,2013-09-26 11:35:00,
2013-09-26 07:38:00,64.2,64.2,29.90,ENE,61,0.0,0.0,100,0.00,,---,0.00,VWS V14.01,2013-09-26 11:38:00,
2013-09-26 07:40:00,64.2,64.2,29.87,ENE,61,0.0,0.0,100,0.00,,---,0.00,VWS V14.01,2013-09-26 11:40:00,
2013-09-26 07:43:00,64.2,64.2,29.90,ENE,61,0.0,0.0,100,0.00,,---,0.00,VWS V14.01,2013-09-26 11:43:00,
2013-09-26 07:45:00,64.2,64.2,29.87,ENE,61,0.0,0.0,100,0.00,,---,0.00,VWS V14.01,2013-09-26 11:45:00,
2013-09-26 07:48:00,64.2,64.2,29.90,ENE,61,0.0,0.0,100,0.00,,---,0.00,VWS V14.01,2013-09-26 11:48:00,
2013-09-26 07:50:00,64.2,64.2,29.88,ENE,61,0.0,0.0,100,0.00,,---,0.00,VWS V14.01,2013-09-26 11:50:00,
2013-09-26 07:53:00,64.2,64.2,29.91,ENE,61,0.0,0.0,100,0.00,,---,0.00,VWS V14.01,2013-09-26 11:53:00,
2013-09-26 07:55:00,64.2,64.2,29.88,ENE,61,0.0,0.0,100,0.00,,---,0.00,VWS V14.01,2013-09-26 11:55:00,
2013-09-26 07:58:00,64.2,64.2,29.91,ENE,61,0.0,1.0,100,0.00,,---,0.00,VWS V14.01,2013-09-26 11:58:00,
2013-09-26 08:00:00,64.3,64.3,29.88,ENE,61,0.0,0.0,100,0.00,,---,0.00,VWS V14.01,2013-09-26 12:00:00,
2013-09-26 08:03:00,64.3,64.3,29.91,ENE,61,0.0,0.0,100,0.00,,---,0.00,VWS V14.01,2013-09-26 12:03:00,
2013-09-26 08:05:00,64.2,64.2,29.89,ENE,61,0.0,0.0,100,0.00,,---,0.00,VWS V14.01,2013-09-26 12:05:00,
2013-09-26 08:08:00,64.3,64.3,29.91,ENE,61,0.0,0.0,100,0.00,,---,0.00,VWS V14.01,2013-09-26 12:08:00,
2013-09-26 08:10:00,64.2,64.2,29.89,ENE,61,0.0,0.0,100,0.00,,---,0.00,VWS V14.01,2013-09-26 12:10:00,
2013-09-26 08:13:00,64.3,64.3,29.91,ENE,61,0.0,0.0,100,0.00,,---,0.00,VWS V14.01,2013-09-26 12:13:00,
2013-09-26 08:15:00,64.2,64.2,29.89,ENE,61,0.0,0.0,100,0.00,,---,0.00,VWS V14.01,2013-09-26 12:15:00,
2013-09-26 08:18:00,64.4,64.4,29.92,ENE,61,0.0,0.0,100,0.00,,---,0.00,VWS V14.01,2013-09-26 12:18:00,
2013-09-26 08:20:00,64.2,64.2,29.89,ENE,61,0.0,0.0,100,0.00,,---,0.00,VWS V14.01,2013-09-26 12:20:00,
2013-09-26 08:23:00,64.5,64.5,29.92,ENE,61,0.0,0.0,100,0.00,,---,0.00,VWS V14.01,2013-09-26 12:23:00,
2013-09-26 08:25:00,64.2,64.2,29.90,ENE,61,0.0,0.0,100,0.00,,---,0.00,VWS V14.01,2013-09-26 12:25:00,
2013-09-26 08:28:00,64.7,64.7,29.92,ENE,61,0.0,0.0,100,0.00,,---,0.00,VWS V14.01,2013-09-26 12:28:00,
2013-09-26 08:30:00,64.3,64.3,29.90,ENE,61,0.0,0.0,100,0.00,,---,0.00,VWS V14.01,2013-09-26 12:30:00,
2013-09-26 08:33:00,64.8,64.8,29.92,ESE,113,0.0,1.0,100,0.00,,---,0.00,VWS V14.01,2013-09-26 12:33:00,
2013-09-26 08:35:00,64.2,64.2,29.90,ENE,61,0.0,0.0,100,0.00,,---,0.00,VWS V14.01,2013-09-26 12:35:00,
2013-09-26 08:38:00,64.9,64.9,29.92,SW,215,0.0,2.0,100,0.00,,---,0.00,VWS V14.01,2013-09-26 12:38:00,
2013-09-26 08:40:00,64.2,64.2,29.90,ENE,61,0.0,0.0,100,0.00,,---,0.00,VWS V14.01,2013-09-26 12:40:00,
2013-09-26 08:43:00,64.9,64.9,29.92,WSW,241,0.0,2.0,100,0.00,,---,0.00,VWS V14.01,2013-09-26 12:43:00,
2013-09-26 08:45:00,64.2,64.2,29.90,ENE,61,0.0,0.0,100,0.00,,---,0.00,VWS V14.01,2013-09-26 12:45:00,
2013-09-26 08:48:00,65.1,65.1,29.92,SW,229,0.0,1.0,100,0.00,,---,0.00,VWS V14.01,2013-09-26 12:48:00,
2013-09-26 08:50:00,64.2,64.2,29.90,ENE,61,0.0,0.0,100,0.00,,---,0.00,VWS V14.01,2013-09-26 12:50:00,
2013-09-26 08:53:00,65.1,64.8,29.92,South,183,0.0,2.0,99,0.00,,---,0.00,VWS V14.01,2013-09-26 12:53:00,
2013-09-26 08:55:00,64.2,64.2,29.90,ENE,61,0.0,0.0,100,0.00,,---,0.00,VWS V14.01,2013-09-26 12:55:00,
2013-09-26 08:58:00,65.3,65.0,29.92,South,184,0.0,0.0,99,0.00,,---,0.00,VWS V14.01,2013-09-26 12:58:00,
2013-09-26 09:00:00,64.2,64.2,29.91,ENE,61,0.0,1.0,100,0.00,,---,0.00,VWS V14.01,2013-09-26 13:00:00,
2013-09-26 09:03:00,65.6,65.3,29.93,South,184,0.0,1.0,99,0.00,,---,0.00,VWS V14.01,2013-09-26 13:03:00,
2013-09-26 09:05:00,64.3,64.3,29.91,ENE,61,0.0,0.0,100,0.00,,---,0.00,VWS V14.01,2013-09-26 13:05:00,
2013-09-26 09:08:00,65.8,64.9,29.93,WSW,242,1.0,2.0,97,0.00,,---,0.00,VWS V14.01,2013-09-26 13:08:00,
2013-09-26 09:10:00,64.3,64.3,29.91,ENE,61,0.0,0.0,100,0.00,,---,0.00,VWS V14.01,2013-09-26 13:10:00,
2013-09-26 09:14:00,66.0,65.1,29.93,WSW,243,0.0,1.0,97,0.00,,---,0.00,VWS V14.01,2013-09-26 13:14:00,
2013-09-26 09:15:00,64.3,64.3,29.92,ENE,61,0.0,0.0,100,0.00,,---,0.00,VWS V14.01,2013-09-26 13:15:00,
2013-09-26 09:19:00,66.4,65.5,29.93,South,181,0.0,1.0,97,0.00,,---,0.00,VWS V14.01,2013-09-26 13:19:00,
2013-09-26 09:20:00,64.4,64.4,29.92,ENE,61,0.0,0.0,100,0.00,,---,0.00,VWS V14.01,2013-09-26 13:20:00,
2013-09-26 09:24:00,66.9,65.7,29.93,SSE,153,0.0,2.0,96,0.00,,---,0.00,VWS V14.01,2013-09-26 13:24:00,
2013-09-26 09:25:00,64.5,64.5,29.92,ENE,61,0.0,0.0,100,0.00,,---,0.00,VWS V14.01,2013-09-26 13:25:00,
2013-09-26 09:29:00,67.3,65.8,29.94,SSW,210,1.0,3.0,95,0.00,,---,0.00,VWS V14.01,2013-09-26 13:29:00,
2013-09-26 09:30:00,64.7,64.7,29.92,ENE,61,0.0,0.0,100,0.00,,---,0.00,VWS V14.01,2013-09-26 13:30:00,
2013-09-26 09:34:00,67.8,66.0,29.94,SE,131,0.0,2.0,94,0.00,,---,0.00,VWS V14.01,2013-09-26 13:34:00,
2013-09-26 09:35:00,64.8,64.8,29.92,SE,129,0.0,1.0,100,0.00,,---,0.00,VWS V14.01,2013-09-26 13:35:00,
2013-09-26 09:39:00,67.9,65.8,29.94,SW,223,0.0,2.0,93,0.00,,---,0.00,VWS V14.01,2013-09-26 13:39:00,
2013-09-26 09:40:00,64.9,64.9,29.92,SW,215,0.0,2.0,100,0.00,,---,0.00,VWS V14.01,2013-09-26 13:40:00,
2013-09-26 09:44:00,67.9,65.8,29.94,SSE,150,0.0,2.0,93,0.00,,---,0.00,VWS V14.01,2013-09-26 13:44:00,
2013-09-26 09:45:00,65.0,65.0,29.92,WSW,242,0.0,2.0,100,0.00,,---,0.00,VWS V14.01,2013-09-26 13:45:00,
2013-09-26 09:49:00,67.9,65.8,29.94,SSE,148,0.0,1.0,93,0.00,,---,0.00,VWS V14.01,2013-09-26 13:49:00,
2013-09-26 09:50:00,65.1,65.1,29.92,SE,136,0.0,1.0,100,0.00,,---,0.00,VWS V14.01,2013-09-26 13:50:00,
2013-09-26 09:54:00,68.1,66.0,29.94,SSE,148,0.0,0.0,93,0.00,,---,0.00,VWS V14.01,2013-09-26 13:54:00,
2013-09-26 09:55:00,65.2,64.9,29.92,South,183,0.0,2.0,99,0.00,,---,0.00,VWS V14.01,2013-09-26 13:55:00,
2013-09-26 09:59:00,68.3,66.2,29.94,East,82,0.0,1.0,93,0.00,,---,0.00,VWS V14.01,2013-09-26 13:59:00,
2013-09-26 10:00:00,65.4,65.1,29.92,South,183,0.0,0.0,99,0.00,,---,0.00,VWS V14.01,2013-09-26 14:00:00,
2013-09-26 10:04:00,68.0,66.2,29.94,East,82,0.0,1.0,94,0.00,,---,0.00,VWS V14.01,2013-09-26 14:04:00,
2013-09-26 10:05:00,65.6,65.3,29.93,South,184,0.0,1.0,99,0.00,,---,0.00,VWS V14.01,2013-09-26 14:05:00,
2013-09-26 10:09:00,67.8,65.7,29.95,East,82,0.0,1.0,93,0.00,,---,0.00,VWS V14.01,2013-09-26 14:09:00,
2013-09-26 10:10:00,65.8,64.9,29.93,WSW,242,0.0,2.0,97,0.00,,---,0.00,VWS V14.01,2013-09-26 14:10:00,
2013-09-26 10:14:00,67.8,65.7,29.95,ENE,57,1.0,2.0,93,0.00,,---,0.00,VWS V14.01,2013-09-26 14:14:00,
2013-09-26 10:15:00,66.1,65.2,29.93,SW,218,0.0,1.0,97,0.00,,---,0.00,VWS V14.01,2013-09-26 14:15:00,
2013-09-26 10:19:00,67.9,66.1,29.95,ENE,75,0.0,1.0,94,0.00,,---,0.00,VWS V14.01,2013-09-26 14:19:00,
2013-09-26 10:20:00,66.5,65.6,29.93,SSE,154,0.0,1.0,97,0.00,,---,0.00,VWS V14.01,2013-09-26 14:20:00,
2013-09-26 10:24:00,68.3,66.8,29.95,ENE,75,1.0,1.0,95,0.00,,---,0.00,VWS V14.01,2013-09-26 14:24:00,
2013-09-26 10:25:00,67.0,66.1,29.93,SSE,149,0.0,2.0,97,0.00,,---,0.00,VWS V14.01,2013-09-26 14:25:00,
2013-09-26 10:29:00,68.3,66.2,29.95,ENE,75,0.0,0.0,93,0.00,,---,0.00,VWS V14.01,2013-09-26 14:29:00,
2013-09-26 10:30:00,67.4,65.9,29.94,SSE,148,1.0,3.0,95,0.00,,---,0.00,VWS V14.01,2013-09-26 14:30:00,
2013-09-26 10:34:00,68.1,66.3,29.95,East,89,1.0,2.0,94,0.00,,---,0.00,VWS V14.01,2013-09-26 14:34:00,
2013-09-26 10:35:00,67.8,66.0,29.94,SE,145,1.0,2.0,94,0.00,,---,0.00,VWS V14.01,2013-09-26 14:35:00,
2013-09-26 10:39:00,68.0,65.9,29.95,ESE,103,1.0,2.0,93,0.00,,---,0.00,VWS V14.01,2013-09-26 14:39:00,
2013-09-26 10:40:00,67.9,65.5,29.94,SE,140,0.0,2.0,92,0.00,,---,0.00,VWS V14.01,2013-09-26 14:40:00,
2013-09-26 10:44:00,68.1,66.0,29.95,ESE,109,0.0,2.0,93,0.00,,---,0.00,VWS V14.01,2013-09-26 14:44:00,
2013-09-26 10:45:00,67.8,65.4,29.94,SSE,150,0.0,2.0,92,0.00,,---,0.00,VWS V14.01,2013-09-26 14:45:00,
2013-09-26 10:49:00,68.2,66.7,29.95,ESE,106,0.0,2.0,95,0.00,,---,0.00,VWS V14.01,2013-09-26 14:49:00,
2013-09-26 10:50:00,68.0,65.9,29.94,SSE,148,0.0,1.0,93,0.00,,---,0.00,VWS V14.01,2013-09-26 14:50:00,
2013-09-26 10:54:00,68.4,66.6,29.95,NE,52,0.0,2.0,94,0.00,,---,0.00,VWS V14.01,2013-09-26 14:54:00,
2013-09-26 10:55:00,68.1,66.0,29.94,SSE,148,0.0,0.0,93,0.00,,---,0.00,VWS V14.01,2013-09-26 14:55:00,
2013-09-26 10:59:00,68.5,66.1,29.95,ESE,116,0.0,2.0,92,0.00,,---,0.00,VWS V14.01,2013-09-26 14:59:00,
2013-09-26 11:00:00,68.2,66.1,29.94,East,82,0.0,1.0,93,0.00,,---,0.00,VWS V14.01,2013-09-26 15:00:00,
2013-09-26 11:04:00,68.7,66.3,29.95,NNE,30,0.0,2.0,92,0.00,,---,0.00,VWS V14.01,2013-09-26 15:04:00,
2013-09-26 11:05:00,68.0,65.9,29.94,East,82,0.0,1.0,93,0.00,,---,0.00,VWS V14.01,2013-09-26 15:05:00,
2013-09-26 11:09:00,68.8,66.1,29.95,ESE,110,0.0,3.0,91,0.00,,---,0.00,VWS V14.01,2013-09-26 15:09:00,
2013-09-26 11:10:00,67.8,65.7,29.95,East,82,0.0,1.0,93,0.00,,---,0.00,VWS V14.01,2013-09-26 15:10:00,
2013-09-26 11:14:00,69.1,66.7,29.95,NNW,346,0.0,2.0,92,0.00,,---,0.00,VWS V14.01,2013-09-26 15:14:00,
2013-09-26 11:15:00,67.9,65.8,29.95,ENE,58,0.0,2.0,93,0.00,,---,0.00,VWS V14.01,2013-09-26 15:15:00,
2013-09-26 11:19:00,69.5,66.4,29.95,NNW,328,0.0,2.0,90,0.00,,---,0.00,VWS V14.01,2013-09-26 15:19:00,
2013-09-26 11:20:00,68.0,66.2,29.95,ENE,75,0.0,1.0,94,0.00,,---,0.00,VWS V14.01,2013-09-26 15:20:00,
2013-09-26 11:24:00,70.0,67.3,29.95,NW,326,0.0,1.0,91,0.00,,---,0.00,VWS V14.01,2013-09-26 15:24:00,
2013-09-26 11:25:00,68.3,66.5,29.95,ENE,75,0.0,1.0,94,0.00,,---,0.00,VWS V14.01,2013-09-26 15:25:00,
2013-09-26 11:29:00,70.3,66.2,29.95,SE,138,3.0,3.0,87,0.00,,---,0.00,VWS V14.01,2013-09-26 15:29:00,
2013-09-26 11:30:00,68.3,66.2,29.95,ENE,75,1.0,1.0,93,0.00,,---,0.00,VWS V14.01,2013-09-26 15:30:00,
2013-09-26 11:34:00,70.0,66.3,29.95,ESE,115,2.0,3.0,88,0.00,,---,0.00,VWS V14.01,2013-09-26 15:34:00,
2013-09-26 11:35:00,68.1,66.3,29.95,East,87,1.0,2.0,94,0.00,,---,0.00,VWS V14.01,2013-09-26 15:35:00,
2013-09-26 11:39:00,70.3,66.9,29.95,ESE,103,0.0,2.0,89,0.00,,---,0.00,VWS V14.01,2013-09-26 15:39:00,
2013-09-26 11:40:00,68.0,65.9,29.95,ESE,104,0.0,2.0,93,0.00,,---,0.00,VWS V14.01,2013-09-26 15:40:00,
2013-09-26 11:44:00,70.7,66.3,29.96,NNW,340,0.0,1.0,86,0.00,,---,0.00,VWS V14.01,2013-09-26 15:44:00,
2013-09-26 11:45:00,68.0,65.9,29.95,East,101,1.0,2.0,93,0.00,,---,0.00,VWS V14.01,2013-09-26 15:45:00,
2013-09-26 11:49:00,70.6,65.9,29.96,WNW,284,0.0,3.0,85,0.00,,---,0.00,VWS V14.01,2013-09-26 15:49:00,
2013-09-26 11:50:00,68.2,66.7,29.95,ESE,106,0.0,2.0,95,0.00,,---,0.00,VWS V14.01,2013-09-26 15:50:00,
2013-09-26 11:54:00,71.2,67.1,29.95,NNW,330,0.0,1.0,87,0.00,,---,0.00,VWS V14.01,2013-09-26 15:54:00,
2013-09-26 11:55:00,68.5,66.7,29.95,NE,52,0.0,2.0,94,0.00,,---,0.00,VWS V14.01,2013-09-26 15:55:00,
2013-09-26 11:59:00,71.5,66.4,29.95,NNE,28,0.0,1.0,84,0.00,,---,0.00,VWS V14.01,2013-09-26 15:59:00,
2013-09-26 12:00:00,68.5,66.1,29.95,ESE,116,0.0,2.0,92,0.00,,---,0.00,VWS V14.01,2013-09-26 16:00:00,
2013-09-26 12:04:00,71.9,66.8,29.95,NNE,29,0.0,1.0,84,0.00,,---,0.00,VWS V14.01,2013-09-26 16:04:00,
2013-09-26 12:05:00,68.8,66.7,29.95,NNE,30,0.0,2.0,93,0.00,,---,0.00,VWS V14.01,2013-09-26 16:05:00,
2013-09-26 12:09:00,72.5,67.7,29.95,ENE,78,0.0,0.0,85,0.00,,---,0.00,VWS V14.01,2013-09-26 16:09:00,
2013-09-26 12:10:00,68.8,66.1,29.95,ESE,110,0.0,3.0,91,0.00,,---,0.00,VWS V14.01,2013-09-26 16:10:00,
2013-09-26 12:14:00,72.9,66.0,29.95,ENE,70,0.0,2.0,79,0.00,,---,0.00,VWS V14.01,2013-09-26 16:14:00,
2013-09-26 12:15:00,69.2,66.8,29.95,NNW,347,0.0,2.0,92,0.00,,---,0.00,VWS V14.01,2013-09-26 16:15:00,
2013-09-26 12:19:00,72.3,66.2,29.96,SE,127,1.0,3.0,81,0.00,,---,0.00,VWS V14.01,2013-09-26 16:19:00,
2013-09-26 12:20:00,69.5,66.4,29.95,NNW,327,0.0,2.0,90,0.00,,---,0.00,VWS V14.01,2013-09-26 16:20:00,
2013-09-26 12:24:00,72.3,65.8,29.96,ESE,116,1.0,4.0,80,0.00,,---,0.00,VWS V14.01,2013-09-26 16:24:00,
2013-09-26 12:25:00,70.1,67.4,29.95,NW,326,0.0,1.0,91,0.00,,---,0.00,VWS V14.01,2013-09-26 16:25:00,
2013-09-26 12:29:00,72.2,65.3,29.96,NE,52,0.0,2.0,79,0.00,,---,0.00,VWS V14.01,2013-09-26 16:29:00,
2013-09-26 12:30:00,70.3,66.2,29.95,SE,140,0.0,3.0,87,0.00,,---,0.00,VWS V14.01,2013-09-26 16:30:00,
2013-09-26 12:34:00,72.1,65.6,29.95,East,93,0.0,2.0,80,0.00,,---,0.00,VWS V14.01,2013-09-26 16:34:00,
2013-09-26 12:35:00,70.0,66.3,29.95,ESE,110,1.0,3.0,88,0.00,,---,0.00,VWS V14.01,2013-09-26 16:35:00,
2013-09-26 12:39:00,72.2,65.7,29.96,ENE,62,0.0,2.0,80,0.00,,---,0.00,VWS V14.01,2013-09-26 16:39:00,
2013-09-26 12:40:00,70.3,66.9,29.95,SE,146,1.0,2.0,89,0.00,,---,0.00,VWS V14.01,2013-09-26 16:40:00,
2013-09-26 12:44:00,72.8,66.3,29.95,NW,310,0.0,1.0,80,0.00,,---,0.00,VWS V14.01,2013-09-26 16:44:00,
2013-09-26 12:45:00,70.7,66.7,29.96,NNW,340,0.0,1.0,87,0.00,,---,0.00,VWS V14.01,2013-09-26 16:45:00,
2013-09-26 12:49:00,73.7,65.7,29.95,WNW,282,0.0,1.0,76,0.00,,---,0.00,VWS V14.01,2013-09-26 16:49:00,
2013-09-26 12:50:00,70.6,65.9,29.96,WNW,287,0.0,3.0,85,0.00,,---,0.00,VWS V14.01,2013-09-26 16:50:00,
2013-09-26 12:54:00,74.0,66.7,29.95,ENE,69,1.0,3.0,78,0.00,,---,0.00,VWS V14.01,2013-09-26 16:54:00,
2013-09-26 12:55:00,71.2,67.1,29.95,NNE,28,0.0,1.0,87,0.00,,---,0.00,VWS V14.01,2013-09-26 16:55:00,
2013-09-26 12:59:00,74.3,65.1,29.95,ESE,119,0.0,3.0,73,0.00,,---,0.00,VWS V14.01,2013-09-26 16:59:00,
2013-09-26 13:00:00,71.6,66.5,29.95,NNE,28,0.0,1.0,84,0.00,,---,0.00,VWS V14.01,2013-09-26 17:00:00,
2013-09-26 13:04:00,74.9,67.2,29.95,SE,143,0.0,3.0,77,0.00,,---,0.00,VWS V14.01,2013-09-26 17:04:00,
2013-09-26 13:05:00,71.9,66.8,29.95,NNE,29,0.0,1.0,84,0.00,,---,0.00,VWS V14.01,2013-09-26 17:05:00,
2013-09-26 13:09:00,75.5,65.0,29.95,SSE,157,3.0,4.0,70,0.00,,---,0.00,VWS V14.01,2013-09-26 17:09:00,
2013-09-26 13:10:00,72.5,67.7,29.95,ENE,78,0.0,0.0,85,0.00,,---,0.00,VWS V14.01,2013-09-26 17:10:00,
2013-09-26 13:14:00,75.5,65.4,29.95,SE,136,0.0,5.0,71,0.00,,---,0.00,VWS V14.01,2013-09-26 17:14:00,
2013-09-26 13:15:00,72.9,66.0,29.95,ENE,70,0.0,2.0,79,0.00,,---,0.00,VWS V14.01,2013-09-26 17:15:00,
2013-09-26 13:19:00,75.6,65.9,29.94,ESE,108,1.0,4.0,72,0.00,,---,0.00,VWS V14.01,2013-09-26 17:19:00,
2013-09-26 13:20:00,72.3,65.8,29.96,SE,140,1.0,3.0,80,0.00,,---,0.00,VWS V14.01,2013-09-26 17:20:00,
2013-09-26 13:24:00,75.6,63.9,29.94,WSW,255,1.0,3.0,67,0.00,,---,0.00,VWS V14.01,2013-09-26 17:24:00,
2013-09-26 13:25:00,72.3,65.8,29.96,ENE,66,0.0,4.0,80,0.00,,---,0.00,VWS V14.01,2013-09-26 17:25:00,
2013-09-26 13:29:00,76.4,65.1,29.94,SE,146,1.0,2.0,68,0.00,,---,0.00,VWS V14.01,2013-09-26 17:29:00,
2013-09-26 13:30:00,72.2,65.3,29.96,NE,52,0.0,2.0,79,0.00,,---,0.00,VWS V14.01,2013-09-26 17:30:00,
2013-09-26 13:34:00,76.6,64.8,29.94,ENE,59,0.0,2.0,67,0.00,,---,0.00,VWS V14.01,2013-09-26 17:34:00,
2013-09-26 13:35:00,72.1,65.6,29.95,ENE,70,1.0,2.0,80,0.00,,---,0.00,VWS V14.01,2013-09-26 17:35:00,
2013-09-26 13:39:00,76.2,64.4,29.94,NE,45,0.0,1.0,67,0.00,,---,0.00,VWS V14.01,2013-09-26 17:39:00,
2013-09-26 13:40:00,72.2,65.7,29.96,ENE,62,0.0,2.0,80,0.00,,---,0.00,VWS V14.01,2013-09-26 17:40:00,
2013-09-26 13:44:00,76.3,65.0,29.94,ESE,111,1.0,1.0,68,0.00,,---,0.00,VWS V14.01,2013-09-26 17:44:00,
2013-09-26 13:45:00,72.8,66.3,29.95,NW,310,0.0,1.0,80,0.00,,---,0.00,VWS V14.01,2013-09-26 17:45:00,
2013-09-26 13:49:00,76.5,64.7,29.94,NE,53,1.0,4.0,67,0.00,,---,0.00,VWS V14.01,2013-09-26 17:49:00,
2013-09-26 13:50:00,73.7,65.7,29.95,WNW,282,0.0,1.0,76,0.00,,---,0.00,VWS V14.01,2013-09-26 17:50:00,
2013-09-26 13:54:00,76.6,64.8,29.93,ESE,108,0.0,2.0,67,0.00,,---,0.00,VWS V14.01,2013-09-26 17:54:00,
2013-09-26 13:55:00,74.0,66.7,29.95,ENE,69,1.0,3.0,78,0.00,,---,0.00,VWS V14.01,2013-09-26 17:55:00,
2013-09-26 13:59:00,77.4,64.7,29.93,SE,141,1.0,4.0,65,0.00,,---,0.00,VWS V14.01,2013-09-26 17:59:00,
2013-09-26 14:00:00,74.3,65.1,29.95,ESE,119,0.0,3.0,73,0.00,,---,0.00,VWS V14.01,2013-09-26 18:00:00,
2013-09-26 14:04:00,77.5,64.4,29.93,NNE,32,4.0,4.0,64,0.00,,---,0.00,VWS V14.01,2013-09-26 18:04:00,
2013-09-26 14:05:00,74.9,67.2,29.95,SSE,151,0.0,3.0,77,0.00,,---,0.00,VWS V14.01,2013-09-26 18:05:00,
2013-09-26 14:09:00,77.3,64.2,29.93,ESE,109,0.0,3.0,64,0.00,,---,0.00,VWS V14.01,2013-09-26 18:09:00,
2013-09-26 14:10:00,75.5,65.0,29.95,SSE,163,3.0,5.0,70,0.00,,---,0.00,VWS V14.01,2013-09-26 18:10:00,
2013-09-26 14:14:00,77.4,63.8,29.93,ESE,105,3.0,8.0,63,0.00,,---,0.00,VWS V14.01,2013-09-26 18:14:00,
2013-09-26 14:15:00,75.5,65.4,29.95,SE,136,0.0,5.0,71,0.00,,---,0.00,VWS V14.01,2013-09-26 18:15:00,
2013-09-26 14:19:00,77.4,65.2,29.93,SE,135,0.0,3.0,66,0.00,,---,0.00,VWS V14.01,2013-09-26 18:19:00,
2013-09-26 14:20:00,75.6,65.9,29.94,ESE,108,1.0,4.0,72,0.00,,---,0.00,VWS V14.01,2013-09-26 18:20:00,
2013-09-26 14:24:00,77.1,64.9,29.93,NNW,337,1.0,5.0,66,0.00,,---,0.00,VWS V14.01,2013-09-26 18:24:00,
2013-09-26 14:25:00,75.6,63.9,29.94,WSW,256,1.0,3.0,67,0.00,,---,0.00,VWS V14.01,2013-09-26 18:25:00,
2013-09-26 14:29:00,77.2,62.7,29.92,WSW,247,3.0,4.0,61,0.00,,---,0.00,VWS V14.01,2013-09-26 18:29:00,
2013-09-26 14:30:00,76.4,65.1,29.94,SE,146,1.0,2.0,68,0.00,,---,0.00,VWS V14.01,2013-09-26 18:30:00,
2013-09-26 14:34:00,77.5,64.4,29.92,NE,52,2.0,4.0,64,0.00,,---,0.00,VWS V14.01,2013-09-26 18:34:00,
2013-09-26 14:35:00,76.6,64.8,29.94,ENE,58,1.0,2.0,67,0.00,,---,0.00,VWS V14.01,2013-09-26 18:35:00,
2013-09-26 14:39:00,77.9,64.3,29.92,NE,40,4.0,5.0,63,0.00,,---,0.00,VWS V14.01,2013-09-26 18:39:00,
2013-09-26 14:40:00,76.2,64.4,29.94,NE,45,0.0,1.0,67,0.00,,---,0.00,VWS V14.01,2013-09-26 18:40:00,
2013-09-26 14:44:00,77.4,63.8,29.92,SW,233,0.0,4.0,63,0.00,,---,0.00,VWS V14.01,2013-09-26 18:44:00,
2013-09-26 14:45:00,76.3,65.0,29.94,ESE,111,0.0,1.0,68,0.00,,---,0.00,VWS V14.01,2013-09-26 18:45:00,
2013-09-26 14:49:00,77.8,63.8,29.92,NE,39,1.0,3.0,62,0.00,,---,0.00,VWS V14.01,2013-09-26 18:49:00,
2013-09-26 14:50:00,76.5,64.7,29.94,NE,53,1.0,4.0,67,0.00,,---,0.00,VWS V14.01,2013-09-26 18:50:00,
2013-09-26 14:54:00,78.2,64.6,29.92,ESE,115,1.0,1.0,63,0.00,,---,0.00,VWS V14.01,2013-09-26 18:54:00,
2013-09-26 14:55:00,76.6,64.8,29.93,ESE,108,0.0,2.0,67,0.00,,---,0.00,VWS V14.01,2013-09-26 18:55:00,
2013-09-26 14:59:00,77.9,64.8,29.92,SSE,153,3.0,4.0,64,0.00,,---,0.00,VWS V14.01,2013-09-26 18:59:00,
2013-09-26 15:00:00,77.3,64.6,29.93,SE,141,1.0,4.0,65,0.00,,---,0.00,VWS V14.01,2013-09-26 19:00:00,
2013-09-26 15:04:00,78.1,64.5,29.92,NE,55,1.0,1.0,63,0.00,,---,0.00,VWS V14.01,2013-09-26 19:04:00,
2013-09-26 15:05:00,77.5,63.9,29.93,NNE,32,3.0,4.0,63,0.00,,---,0.00,VWS V14.01,2013-09-26 19:05:00,
2013-09-26 15:09:00,78.1,64.0,29.92,NE,49,0.0,1.0,62,0.00,,---,0.00,VWS V14.01,2013-09-26 19:09:00,
2013-09-26 15:10:00,77.3,64.2,29.93,ESE,109,0.0,3.0,64,0.00,,---,0.00,VWS V14.01,2013-09-26 19:10:00,
2013-09-26 15:14:00,78.2,63.7,29.92,NE,46,2.0,2.0,61,0.00,,---,0.00,VWS V14.01,2013-09-26 19:14:00,
2013-09-26 15:15:00,77.4,63.8,29.93,ESE,105,3.0,8.0,63,0.00,,---,0.00,VWS V14.01,2013-09-26 19:15:00,
2013-09-26 15:19:00,77.9,63.4,29.92,NE,56,1.0,1.0,61,0.00,,---,0.00,VWS V14.01,2013-09-26 19:19:00,
2013-09-26 15:20:00,77.4,65.2,29.93,NE,44,1.0,3.0,66,0.00,,---,0.00,VWS V14.01,2013-09-26 19:20:00,
2013-09-26 15:24:00,78.5,64.9,29.92,ESE,105,0.0,0.0,63,0.00,,---,0.00,VWS V14.01,2013-09-26 19:24:00,
2013-09-26 15:25:00,77.1,64.9,29.93,NNW,337,1.0,5.0,66,0.00,,---,0.00,VWS V14.01,2013-09-26 19:25:00,
2013-09-26 15:30:00,78.6,64.0,29.91,East,101,3.0,3.0,61,0.00,,---,0.00,VWS V14.01,2013-09-26 19:30:00,
2013-09-26 15:35:00,78.9,64.3,29.91,NE,54,1.0,1.0,61,0.00,,---,0.00,VWS V14.01,2013-09-26 19:35:00,
2013-09-26 15:40:00,78.9,63.4,29.91,ESE,120,2.0,2.0,59,0.00,,---,0.00,VWS V14.01,2013-09-26 19:40:00,
2013-09-26 15:45:00,78.6,63.6,29.91,NE,55,2.0,2.0,60,0.00,,---,0.00,VWS V14.01,2013-09-26 19:45:00,
2013-09-26 15:50:00,79.2,64.1,29.91,ESE,122,0.0,0.0,60,0.00,,---,0.00,VWS V14.01,2013-09-26 19:50:00,
2013-09-26 15:55:00,79.2,64.1,29.91,ESE,109,2.0,2.0,60,0.00,,---,0.00,VWS V14.01,2013-09-26 19:55:00,
2013-09-26 16:00:00,79.0,64.4,29.91,ENE,75,0.0,1.0,61,0.00,,---,0.00,VWS V14.01,2013-09-26 20:00:00,
2013-09-26 16:05:00,79.0,64.4,29.91,NNE,25,2.0,4.0,61,0.00,,---,0.00,VWS V14.01,2013-09-26 20:05:00,
2013-09-26 16:10:00,79.2,64.6,29.91,NE,50,1.0,4.0,61,0.00,,---,0.00,VWS V14.01,2013-09-26 20:10:00,
2013-09-26 16:15:00,79.0,63.5,29.91,SE,132,7.0,7.0,59,0.00,,---,0.00,VWS V14.01,2013-09-26 20:15:00,
2013-09-26 16:20:00,79.0,64.4,29.91,NE,49,0.0,1.0,61,0.00,,---,0.00,VWS V14.01,2013-09-26 20:20:00,
2013-09-26 16:25:00,78.9,63.8,29.91,NE,40,1.0,2.0,60,0.00,,---,0.00,VWS V14.01,2013-09-26 20:25:00,
2013-09-26 16:30:00,78.8,64.2,29.91,North,354,0.0,1.0,61,0.00,,---,0.00,VWS V14.01,2013-09-26 20:30:00,
2013-09-26 16:35:00,78.6,63.6,29.91,NE,41,2.0,3.0,60,0.00,,---,0.00,VWS V14.01,2013-09-26 20:35:00,
2013-09-26 16:40:00,78.6,64.5,29.91,ESE,114,1.0,1.0,62,0.00,,---,0.00,VWS V14.01,2013-09-26 20:40:00,
2013-09-26 16:45:00,78.7,64.6,29.91,NNW,342,2.0,2.0,62,0.00,,---,0.00,VWS V14.01,2013-09-26 20:45:00,
2013-09-26 16:50:00,79.2,64.6,29.91,SE,131,1.0,2.0,61,0.00,,---,0.00,VWS V14.01,2013-09-26 20:50:00,
2013-09-26 16:55:00,79.5,63.9,29.91,West,281,1.0,1.0,59,0.00,,---,0.00,VWS V14.01,2013-09-26 20:55:00,
2013-09-26 17:00:00,79.7,64.1,29.91,NNE,18,0.0,1.0,59,0.00,,---,0.00,VWS V14.01,2013-09-26 21:00:00,
2013-09-26 17:05:00,80.1,64.0,29.91,NE,56,1.0,1.0,58,0.00,,---,0.00,VWS V14.01,2013-09-26 21:05:00,
2013-09-26 17:10:00,79.7,63.6,29.91,ESE,103,0.0,1.0,58,0.00,,---,0.00,VWS V14.01,2013-09-26 21:10:00,
2013-09-26 17:15:00,79.1,62.6,29.91,SSE,147,1.0,2.0,57,0.00,,---,0.00,VWS V14.01,2013-09-26 21:15:00,
2013-09-26 17:20:00,78.9,62.9,29.91,ESE,122,2.0,3.0,58,0.00,,---,0.00,VWS V14.01,2013-09-26 21:20:00,
2013-09-26 17:25:00,78.6,63.1,29.91,ESE,113,2.0,8.0,59,0.00,,---,0.00,VWS V14.01,2013-09-26 21:25:00,
2013-09-26 17:30:00,78.4,63.8,29.91,NW,322,0.0,0.0,61,0.00,,---,0.00,VWS V14.01,2013-09-26 21:30:00,
2013-09-26 17:35:00,78.3,63.8,29.91,NNE,17,0.0,0.0,61,0.00,,---,0.00,VWS V14.01,2013-09-26 21:35:00,
2013-09-26 17:40:00,78.2,64.1,29.91,East,94,0.0,1.0,62,0.00,,---,0.00,VWS V14.01,2013-09-26 21:40:00,
2013-09-26 17:45:00,78.4,64.3,29.91,NW,319,1.0,2.0,62,0.00,,---,0.00,VWS V14.01,2013-09-26 21:45:00,
2013-09-26 17:50:00,78.4,63.4,29.91,NNE,21,0.0,0.0,60,0.00,,---,0.00,VWS V14.01,2013-09-26 21:50:00,
2013-09-26 17:55:00,79.0,63.9,29.91,East,98,1.0,4.0,60,0.00,,---,0.00,VWS V14.01,2013-09-26 21:55:00,
2013-09-26 18:00:00,78.5,64.4,29.91,SE,136,3.0,3.0,62,0.00,,---,0.00,VWS V14.01,2013-09-26 22:00:00,
2013-09-26 18:05:00,78.0,63.5,29.91,East,96,3.0,4.0,61,0.00,,---,0.00,VWS V14.01,2013-09-26 22:05:00,
2013-09-26 18:10:00,78.4,64.8,29.91,ESE,111,0.0,0.0,63,0.00,,---,0.00,VWS V14.01,2013-09-26 22:10:00,
2013-09-26 18:15:00,79.1,64.5,29.91,NNE,27,1.0,1.0,61,0.00,,---,0.00,VWS V14.01,2013-09-26 22:15:00,
2013-09-26 18:20:00,79.0,64.9,29.91,NNW,338,0.0,0.0,62,0.00,,---,0.00,VWS V14.01,2013-09-26 22:20:00,
2013-09-26 18:25:00,79.2,65.1,29.91,East,93,1.0,1.0,62,0.00,,---,0.00,VWS V14.01,2013-09-26 22:25:00,
2013-09-26 18:30:00,78.8,66.1,29.91,ENE,67,0.0,0.0,65,0.00,,---,0.00,VWS V14.01,2013-09-26 22:30:00,
2013-09-26 18:35:00,77.9,65.2,29.91,NNW,338,0.0,1.0,65,0.00,,---,0.00,VWS V14.01,2013-09-26 22:35:00,
2013-09-26 18:40:00,76.8,64.6,29.92,NNE,21,0.0,0.0,66,0.00,,---,0.00,VWS V14.01,2013-09-26 22:40:00,
2013-09-26 18:45:00,76.0,64.7,29.92,NNE,21,0.0,0.0,68,0.00,,---,0.00,VWS V14.01,2013-09-26 22:45:00,
2013-09-26 18:50:00,75.3,64.8,29.92,NNE,21,0.0,0.0,70,0.00,,---,0.00,VWS V14.01,2013-09-26 22:50:00,
2013-09-26 18:55:00,74.8,64.8,29.92,NNE,21,0.0,0.0,71,0.00,,---,0.00,VWS V14.01,2013-09-26 22:55:00,
2013-09-26 19:00:00,74.0,65.6,29.92,NNE,21,0.0,0.0,75,0.00,,---,0.00,VWS V14.01,2013-09-26 23:00:00,
2013-09-26 19:05:00,73.4,65.4,29.92,NNE,21,0.0,0.0,76,0.00,,---,0.00,VWS V14.01,2013-09-26 23:05:00,
2013-09-26 19:10:00,72.9,65.3,29.92,NNE,21,0.0,0.0,77,0.00,,---,0.00,VWS V14.01,2013-09-26 23:10:00,
2013-09-26 19:15:00,72.3,65.4,29.92,NNE,21,0.0,0.0,79,0.00,,---,0.00,VWS V14.01,2013-09-26 23:15:00,
2013-09-26 19:20:00,71.6,65.5,29.92,NNE,21,0.0,0.0,81,0.00,,---,0.00,VWS V14.01,2013-09-26 23:20:00,
2013-09-26 19:25:00,71.0,65.2,29.92,NNE,21,0.0,0.0,82,0.00,,---,0.00,VWS V14.01,2013-09-26 23:25:00,
2013-09-26 19:30:00,70.2,65.1,29.92,NNE,21,0.0,0.0,84,0.00,,---,0.00,VWS V14.01,2013-09-26 23:30:00,
2013-09-26 19:35:00,69.3,64.6,29.92,NNE,21,0.0,0.0,85,0.00,,---,0.00,VWS V14.01,2013-09-26 23:35:00,
2013-09-26 19:40:00,68.7,65.0,29.92,NNE,21,0.0,0.0,88,0.00,,---,0.00,VWS V14.01,2013-09-26 23:40:00,
2013-09-26 19:45:00,76.2,65.3,29.92,NNE,21,0.0,0.0,69,0.00,,---,0.00,VWS V14.01,2013-09-26 23:45:00,
2013-09-26 19:46:00,68.1,64.7,29.92,NNE,21,0.0,0.0,89,0.00,,---,0.00,VWS V14.01,2013-09-26 23:46:00,
2013-09-26 19:50:00,75.4,64.9,29.92,NNE,21,0.0,0.0,70,0.00,,---,0.00,VWS V14.01,2013-09-26 23:50:00,
2013-09-26 19:51:00,67.7,64.7,29.92,NNE,21,0.0,0.0,90,0.00,,---,0.00,VWS V14.01,2013-09-26 23:51:00,
2013-09-26 19:55:00,74.9,65.3,29.92,NNE,21,0.0,0.0,72,0.00,,---,0.00,VWS V14.01,2013-09-26 23:55:00,
2013-09-26 19:56:00,67.2,64.5,29.92,NNE,21,0.0,0.0,91,0.00,,---,0.00,VWS V14.01,2013-09-26 23:56:00,
2013-09-26 20:00:00,74.1,65.3,29.92,NNE,21,0.0,0.0,74,0.00,,---,0.00,VWS V14.01,2013-09-27 00:00:00,
2013-09-26 20:01:00,66.8,64.4,29.92,NNE,21,0.0,0.0,92,0.00,,---,0.00,VWS V14.01,2013-09-27 00:01:00,
2013-09-26 20:05:00,73.5,65.1,29.92,NNE,21,0.0,0.0,75,0.00,,---,0.00,VWS V14.01,2013-09-27 00:05:00,
2013-09-26 20:06:00,66.4,64.3,29.92,NNE,21,0.0,0.0,93,0.00,,---,0.00,VWS V14.01,2013-09-27 00:06:00,
2013-09-26 20:10:00,72.9,65.3,29.92,NNE,21,0.0,0.0,77,0.00,,---,0.00,VWS V14.01,2013-09-27 00:10:00,
2013-09-26 20:11:00,66.0,63.9,29.93,NNE,21,0.0,0.0,93,0.00,,---,0.00,VWS V14.01,2013-09-27 00:11:00,
2013-09-26 20:15:00,72.4,65.2,29.92,NNE,21,0.0,0.0,78,0.00,,---,0.00,VWS V14.01,2013-09-27 00:15:00,
2013-09-26 20:16:00,65.7,63.9,29.93,NNE,21,0.0,0.0,94,0.00,,---,0.00,VWS V14.01,2013-09-27 00:16:00,
2013-09-26 20:20:00,71.8,65.3,29.92,NNE,21,0.0,0.0,80,0.00,,---,0.00,VWS V14.01,2013-09-27 00:20:00,
2013-09-26 20:21:00,65.4,63.6,29.93,NNE,21,0.0,0.0,94,0.00,,---,0.00,VWS V14.01,2013-09-27 00:21:00,
2013-09-26 20:25:00,71.1,65.0,29.92,NNE,21,0.0,0.0,81,0.00,,---,0.00,VWS V14.01,2013-09-27 00:25:00,
2013-09-26 20:26:00,65.2,63.7,29.93,NNE,21,0.0,0.0,95,0.00,,---,0.00,VWS V14.01,2013-09-27 00:26:00,
2013-09-26 20:30:00,70.4,65.0,29.92,NNE,21,0.0,0.0,83,0.00,,---,0.00,VWS V14.01,2013-09-27 00:30:00,
2013-09-26 20:31:00,64.9,63.4,29.93,NNE,21,0.0,0.0,95,0.00,,---,0.00,VWS V14.01,2013-09-27 00:31:00,
2013-09-26 20:35:00,69.5,64.8,29.92,NNE,21,0.0,0.0,85,0.00,,---,0.00,VWS V14.01,2013-09-27 00:35:00,
2013-09-26 20:36:00,64.7,63.5,29.93,NNE,21,0.0,0.0,96,0.00,,---,0.00,VWS V14.01,2013-09-27 00:36:00,
2013-09-26 20:40:00,68.8,64.8,29.92,NNE,21,0.0,0.0,87,0.00,,---,0.00,VWS V14.01,2013-09-27 00:40:00,
2013-09-26 20:41:00,64.5,63.3,29.93,NNE,21,0.0,0.0,96,0.00,,---,0.00,VWS V14.01,2013-09-27 00:41:00,
2013-09-26 20:45:00,68.3,64.9,29.92,NNE,21,0.0,0.0,89,0.00,,---,0.00,VWS V14.01,2013-09-27 00:45:00,
2013-09-26 20:46:00,64.3,63.1,29.93,NNE,21,0.0,0.0,96,0.00,,---,0.00,VWS V14.01,2013-09-27 00:46:00,
2013-09-26 20:50:00,67.8,64.4,29.92,NNE,21,0.0,0.0,89,0.00,,---,0.00,VWS V14.01,2013-09-27 00:50:00,
2013-09-26 20:51:00,64.2,63.3,29.93,NNE,21,0.0,0.0,97,0.00,,---,0.00,VWS V14.01,2013-09-27 00:51:00,
2013-09-26 20:55:00,67.3,64.3,29.92,NNE,21,0.0,0.0,90,0.00,,---,0.00,VWS V14.01,2013-09-27 00:55:00,
2013-09-26 20:56:00,64.1,63.2,29.94,NNE,21,0.0,0.0,97,0.00,,---,0.00,VWS V14.01,2013-09-27 00:56:00,
2013-09-26 21:00:00,66.9,64.2,29.92,NNE,21,0.0,0.0,91,0.00,,---,0.00,VWS V14.01,2013-09-27 01:00:00,
2013-09-26 21:01:00,63.9,63.0,29.94,NNE,21,0.0,0.0,97,0.00,,---,0.00,VWS V14.01,2013-09-27 01:01:00,
2013-09-26 21:05:00,66.5,64.1,29.92,NNE,21,0.0,0.0,92,0.00,,---,0.00,VWS V14.01,2013-09-27 01:05:00,
2013-09-26 21:06:00,63.8,62.9,29.94,NNE,21,0.0,0.0,97,0.00,,---,0.00,VWS V14.01,2013-09-27 01:06:00,
2013-09-26 21:10:00,66.1,64.0,29.92,NNE,21,0.0,0.0,93,0.00,,---,0.00,VWS V14.01,2013-09-27 01:10:00,
2013-09-26 21:11:00,63.6,62.7,29.94,NNE,21,0.0,0.0,97,0.00,,---,0.00,VWS V14.01,2013-09-27 01:11:00,
2013-09-26 21:15:00,65.8,64.0,29.93,NNE,21,0.0,0.0,94,0.00,,---,0.00,VWS V14.01,2013-09-27 01:15:00,
2013-09-26 21:16:00,63.4,62.5,29.94,NNE,21,0.0,0.0,97,0.00,,---,0.00,VWS V14.01,2013-09-27 01:16:00,
2013-09-26 21:20:00,65.5,63.7,29.93,NNE,21,0.0,0.0,94,0.00,,---,0.00,VWS V14.01,2013-09-27 01:20:00,
2013-09-26 21:21:00,63.3,62.4,29.95,NNE,21,0.0,0.0,97,0.00,,---,0.00,VWS V14.01,2013-09-27 01:21:00,
2013-09-26 21:25:00,65.2,63.7,29.93,NNE,21,0.0,0.0,95,0.00,,---,0.00,VWS V14.01,2013-09-27 01:25:00,
2013-09-26 21:26:00,63.2,62.3,29.95,NNE,21,0.0,0.0,97,0.00,,---,0.00,VWS V14.01,2013-09-27 01:26:00,
2013-09-26 21:30:00,65.0,63.5,29.93,NNE,21,0.0,0.0,95,0.00,,---,0.00,VWS V14.01,2013-09-27 01:30:00,
2013-09-26 21:31:00,63.1,62.5,29.95,NNE,21,0.0,0.0,98,0.00,,---,0.00,VWS V14.01,2013-09-27 01:31:00,
2013-09-26 21:35:00,64.8,63.6,29.93,NNE,21,0.0,0.0,96,0.00,,---,0.00,VWS V14.01,2013-09-27 01:35:00,
2013-09-26 21:36:00,62.9,62.3,29.95,NNE,21,0.0,0.0,98,0.00,,---,0.00,VWS V14.01,2013-09-27 01:36:00,
2013-09-26 21:40:00,64.6,63.4,29.93,NNE,21,0.0,0.0,96,0.00,,---,0.00,VWS V14.01,2013-09-27 01:40:00,
2013-09-26 21:41:00,62.9,62.3,29.96,NNE,21,0.0,0.0,98,0.00,,---,0.00,VWS V14.01,2013-09-27 01:41:00,
2013-09-26 21:45:00,64.3,63.1,29.93,NNE,21,0.0,0.0,96,0.00,,---,0.00,VWS V14.01,2013-09-27 01:45:00,
2013-09-26 21:46:00,62.8,62.2,29.96,NNE,21,0.0,0.0,98,0.00,,---,0.00,VWS V14.01,2013-09-27 01:46:00,
2013-09-26 21:50:00,64.2,63.3,29.93,NNE,21,0.0,0.0,97,0.00,,---,0.00,VWS V14.01,2013-09-27 01:50:00,
2013-09-26 21:51:00,62.6,62.0,29.96,NNE,21,0.0,0.0,98,0.00,,---,0.00,VWS V14.01,2013-09-27 01:51:00,
2013-09-26 21:55:00,64.1,63.2,29.94,NNE,21,0.0,0.0,97,0.00,,---,0.00,VWS V14.01,2013-09-27 01:55:00,
2013-09-26 21:56:00,62.5,61.9,29.96,NNE,21,0.0,0.0,98,0.00,,---,0.00,VWS V14.01,2013-09-27 01:56:00,
2013-09-26 22:00:00,64.0,63.1,29.94,NNE,21,0.0,0.0,97,0.00,,---,0.00,VWS V14.01,2013-09-27 02:00:00,
2013-09-26 22:01:00,62.5,61.9,29.96,NNE,21,0.0,0.0,98,0.00,,---,0.00,VWS V14.01,2013-09-27 02:01:00,
2013-09-26 22:05:00,63.9,63.0,29.94,NNE,21,0.0,0.0,97,0.00,,---,0.00,VWS V14.01,2013-09-27 02:05:00,
2013-09-26 22:06:00,62.4,61.8,29.96,NNE,21,0.0,0.0,98,0.00,,---,0.00,VWS V14.01,2013-09-27 02:06:00,
2013-09-26 22:10:00,63.7,62.8,29.94,NNE,21,0.0,0.0,97,0.00,,---,0.00,VWS V14.01,2013-09-27 02:10:00,
2013-09-26 22:11:00,62.2,61.6,29.97,NNE,21,0.0,0.0,98,0.00,,---,0.00,VWS V14.01,2013-09-27 02:11:00,
2013-09-26 22:15:00,63.4,62.5,29.94,NNE,21,0.0,0.0,97,0.00,,---,0.00,VWS V14.01,2013-09-27 02:15:00,
2013-09-26 22:16:00,62.1,61.5,29.96,NNE,21,0.0,0.0,98,0.00,,---,0.00,VWS V14.01,2013-09-27 02:16:00,
2013-09-26 22:20:00,63.4,62.5,29.95,NNE,21,0.0,0.0,97,0.00,,---,0.00,VWS V14.01,2013-09-27 02:20:00,
2013-09-26 22:21:00,62.0,61.4,29.96,NNE,21,0.0,0.0,98,0.00,,---,0.00,VWS V14.01,2013-09-27 02:21:00,
2013-09-26 22:25:00,63.3,62.4,29.95,NNE,21,0.0,0.0,97,0.00,,---,0.00,VWS V14.01,2013-09-27 02:25:00,
2013-09-26 22:26:00,61.9,61.3,29.97,NNE,21,0.0,0.0,98,0.00,,---,0.00,VWS V14.01,2013-09-27 02:26:00,
2013-09-26 22:30:00,63.2,62.6,29.95,NNE,21,0.0,0.0,98,0.00,,---,0.00,VWS V14.01,2013-09-27 02:30:00,
2013-09-26 22:31:00,61.7,61.1,29.97,NNE,21,0.0,0.0,98,0.00,,---,0.00,VWS V14.01,2013-09-27 02:31:00,
2013-09-26 22:35:00,63.0,62.4,29.95,NNE,21,0.0,0.0,98,0.00,,---,0.00,VWS V14.01,2013-09-27 02:35:00,
2013-09-26 22:36:00,61.6,61.0,29.97,NNE,21,0.0,0.0,98,0.00,,---,0.00,VWS V14.01,2013-09-27 02:36:00,
2013-09-26 22:40:00,64.6,63.4,29.93,NNE,21,0.0,0.0,96,0.00,,---,0.00,VWS V14.01,2013-09-27 02:40:00,
2013-09-26 22:41:00,61.5,60.9,29.97,NNE,21,0.0,0.0,98,0.00,,---,0.00,VWS V14.01,2013-09-27 02:41:00,
2013-09-26 22:45:00,62.8,62.2,29.96,NNE,21,0.0,0.0,98,0.00,,---,0.00,VWS V14.01,2013-09-27 02:45:00,
2013-09-26 22:46:00,61.5,60.9,29.97,NNE,21,0.0,0.0,98,0.00,,---,0.00,VWS V14.01,2013-09-27 02:46:00,
2013-09-26 22:50:00,62.7,62.1,29.96,NNE,21,0.0,0.0,98,0.00,,---,0.00,VWS V14.01,2013-09-27 02:50:00,
2013-09-26 22:52:00,61.4,60.8,29.97,NNE,21,0.0,0.0,98,0.00,,---,0.00,VWS V14.01,2013-09-27 02:52:00,
2013-09-26 22:55:00,62.5,61.9,29.96,NNE,21,0.0,0.0,98,0.00,,---,0.00,VWS V14.01,2013-09-27 02:55:00,
2013-09-26 22:57:00,61.3,60.7,29.97,NNE,21,0.0,0.0,98,0.00,,---,0.00,VWS V14.01,2013-09-27 02:57:00,
2013-09-26 23:00:00,62.6,62.0,29.96,NNE,21,0.0,0.0,98,0.00,,---,0.00,VWS V14.01,2013-09-27 03:00:00,
2013-09-26 23:02:00,61.4,61.1,29.97,NNE,21,0.0,0.0,99,0.00,,---,0.00,VWS V14.01,2013-09-27 03:02:00,
2013-09-26 23:05:00,62.4,61.8,29.96,NNE,21,0.0,0.0,98,0.00,,---,0.00,VWS V14.01,2013-09-27 03:05:00,
2013-09-26 23:07:00,61.3,60.7,29.97,NNE,21,0.0,0.0,98,0.00,,---,0.00,VWS V14.01,2013-09-27 03:07:00,
2013-09-26 23:10:00,62.3,61.7,29.96,NNE,21,0.0,0.0,98,0.00,,---,0.00,VWS V14.01,2013-09-27 03:10:00,
2013-09-26 23:12:00,61.1,60.5,29.97,NNE,21,0.0,0.0,98,0.00,,---,0.00,VWS V14.01,2013-09-27 03:12:00,
2013-09-26 23:15:00,62.2,61.6,29.96,NNE,21,0.0,0.0,98,0.00,,---,0.00,VWS V14.01,2013-09-27 03:15:00,
2013-09-26 23:17:00,61.0,60.4,29.98,NNE,21,0.0,0.0,98,0.00,,---,0.00,VWS V14.01,2013-09-27 03:17:00,
2013-09-26 23:20:00,62.1,61.5,29.96,NNE,21,0.0,0.0,98,0.00,,---,0.00,VWS V14.01,2013-09-27 03:20:00,
2013-09-26 23:22:00,60.9,60.3,29.98,NNE,21,0.0,0.0,98,0.00,,---,0.00,VWS V14.01,2013-09-27 03:22:00,
2013-09-26 23:25:00,62.0,61.4,29.96,NNE,21,0.0,0.0,98,0.00,,---,0.00,VWS V14.01,2013-09-27 03:25:00,
2013-09-26 23:27:00,60.8,60.2,29.98,NNE,21,0.0,0.0,98,0.00,,---,0.00,VWS V14.01,2013-09-27 03:27:00,
2013-09-26 23:30:00,61.8,61.2,29.96,NNE,21,0.0,0.0,98,0.00,,---,0.00,VWS V14.01,2013-09-27 03:30:00,
2013-09-26 23:32:00,60.8,60.2,29.98,NNE,21,0.0,0.0,98,0.00,,---,0.00,VWS V14.01,2013-09-27 03:32:00,
2013-09-26 23:35:00,61.6,61.0,29.97,NNE,21,0.0,0.0,98,0.00,,---,0.00,VWS V14.01,2013-09-27 03:35:00,
2013-09-26 23:37:00,60.7,60.1,29.98,NNE,21,0.0,0.0,98,0.00,,---,0.00,VWS V14.01,2013-09-27 03:37:00,
2013-09-26 23:40:00,61.5,60.9,29.97,NNE,21,0.0,0.0,98,0.00,,---,0.00,VWS V14.01,2013-09-27 03:40:00,
2013-09-26 23:42:00,60.4,59.8,29.98,NNE,21,0.0,0.0,98,0.00,,---,0.00,VWS V14.01,2013-09-27 03:42:00,
2013-09-26 23:45:00,61.5,60.9,29.97,NNE,21,0.0,0.0,98,0.00,,---,0.00,VWS V14.01,2013-09-27 03:45:00,
2013-09-26 23:47:00,60.1,59.5,29.98,NNE,21,0.0,0.0,98,0.00,,---,0.00,VWS V14.01,2013-09-27 03:47:00,
2013-09-26 23:50:00,61.4,60.8,29.97,NNE,21,0.0,0.0,98,0.00,,---,0.00,VWS V14.01,2013-09-27 03:50:00,
2013-09-26 23:52:00,60.0,59.4,29.98,NNE,21,0.0,0.0,98,0.00,,---,0.00,VWS V14.01,2013-09-27 03:52:00,
2013-09-26 23:55:00,61.4,61.1,29.97,NNE,21,0.0,0.0,99,0.00,,---,0.00,VWS V14.01,2013-09-27 03:55:00,
2013-09-26 23:57:00,59.8,59.2,29.98,NNE,21,0.0,0.0,98,0.00,,---,0.00,VWS V14.01,2013-09-27 03:57:00,